This is the latest recevied weather packets stored in our database for station/object K6LCM-13. If no packets are shown the sender has not sent any weather packets the latest 10 day(s).
| Time | Temp. | Humidity | Pressure | Rain* | Wind** | Luminosity | Snow |
|---|---|---|---|---|---|---|---|
| 1777388143 | 14.44° C | 82% | 1018.1 hPa | 0 mm | - | - | - |
| 1777387603 | 13.89° C | 84% | 1018.1 hPa | 0 mm | - | - | - |
| 1777387062 | 13.33° C | 87% | 1018 hPa | 0 mm | - | - | - |
| 1777386523 | 12.78° C | 89% | 1018 hPa | 0 mm | - | - | - |
| 1777385982 | 12.22° C | 91% | 1018 hPa | 0 mm | - | - | - |
| 1777385443 | 11.11° C | 93% | 1017.9 hPa | 0 mm | - | - | - |
| 1777384902 | 10.56° C | 93% | 1017.8 hPa | 0 mm | - | - | - |
| 1777384362 | 10.56° C | 93% | 1017.6 hPa | 0 mm | - | - | - |
| 1777383822 | 10° C | 92% | 1017.4 hPa | 0 mm | - | - | - |
| 1777383283 | 10° C | 92% | 1017.4 hPa | 0 mm | - | - | - |
| 1777382742 | 10° C | 91% | 1017.2 hPa | 0 mm | - | - | - |
| 1777382202 | 10° C | 91% | 1017.1 hPa | 0 mm | - | - | - |
| 1777381662 | 10.56° C | 91% | 1017 hPa | 0 mm | - | - | - |
| 1777381123 | 10.56° C | 91% | 1016.8 hPa | 0 mm | - | - | - |
| 1777380582 | 10.56° C | 91% | 1016.6 hPa | 0 mm | - | - | - |
| 1777380043 | 10.56° C | 91% | 1016.5 hPa | 0 mm | - | - | - |
| 1777379503 | 10.56° C | 90% | 1016.6 hPa | 0 mm | - | - | - |
| 1777378963 | 10.56° C | 90% | 1016.5 hPa | 0 mm | - | - | - |
| 1777378422 | 10.56° C | 90% | 1016.6 hPa | 0 mm | - | - | - |
| 1777377883 | 10.56° C | 90% | 1016.6 hPa | 0 mm | - | - | - |
| 1777377343 | 11.11° C | 90% | 1016.6 hPa | 0 mm | - | - | - |
| 1777376803 | 11.11° C | 90% | 1016.8 hPa | 0 mm | - | - | - |
| 1777376262 | 11.11° C | 90% | 1016.8 hPa | 0 mm | - | - | - |
| 1777375723 | 11.11° C | 90% | 1016.8 hPa | 0 mm | - | - | - |
| 1777375182 | 11.11° C | 89% | 1016.7 hPa | 0 mm | - | - | - |
* Rain latest hour (hover to see other rain measurements)
** Current wind speed in m/s (hover to see current wind gust speed)